| time (UTC) | temp C | wind direction | speed KPH | gust KPH | rain 1hr cm | rain 24hr cm | rain mn cm | humidity % | barometer mb |
| 20260506110503 | 22 | 218 | 0.0 | 3.2 | 0.00 | 0.00 | 0.00 | 91 | 1009.3 |
| 20260506110003 | 22 | 218 | 0.0 | 3.2 | 0.00 | 0.00 | 0.00 | 90 | 1009.3 |
| 20260506105503 | 22 | 218 | 1.6 | 3.2 | 0.00 | 0.00 | 0.00 | 91 | 1009.1 |
| 20260506105003 | 22 | 218 | 0.0 | 3.2 | 0.00 | 0.00 | 0.00 | 91 | 1009.1 |
| 20260506104503 | 22 | 228 | 0.0 | 3.2 | 0.00 | 0.00 | 0.00 | 90 | 1009.2 |
| 20260506104003 | 22 | 228 | 0.0 | 3.2 | 0.00 | 0.00 | 0.00 | 91 | 1009.1 |
| 20260506103524 | 22 | 228 | 0.0 | 1.6 | 0.00 | 0.00 | 0.00 | 91 | 1009.0 |
| 20260506103003 | 22 | 229 | 0.0 | 4.8 | 0.00 | 0.00 | 0.00 | 91 | 1008.9 |
| 20260506102503 | 22 | 231 | 1.6 | 4.8 | 0.00 | 0.00 | 0.00 | 90 | 1008.9 |
| 20260506102003 | 22 | 235 | 0.0 | 3.2 | 0.00 | 0.00 | 0.00 | 90 | 1008.9 |
| 20260506101524 | 22 | 236 | 1.6 | 6.4 | 0.00 | 0.00 | 0.00 | 90 | 1009.0 |
| 20260506101003 | 22 | 236 | 1.6 | 6.4 | 0.00 | 0.00 | 0.00 | 90 | 1009.0 |
| 20260506100503 | 22 | 235 | 0.0 | 3.2 | 0.00 | 0.00 | 0.00 | 90 | 1009.0 |
| 20260506100003 | 22 | 229 | 1.6 | 6.4 | 0.00 | 0.00 | 0.00 | 90 | 1008.9 |
| 20260506095503 | 22 | 129 | 1.6 | 6.4 | 0.00 | 0.00 | 0.00 | 90 | 1008.7 |
| 20260506095003 | 22 | 90 | 1.6 | 6.4 | 0.00 | 0.00 | 0.00 | 90 | 1008.7 |
| 20260506094503 | 23 | 64 | 1.6 | 6.4 | 0.00 | 0.00 | 0.00 | 89 | 1008.7 |
| 20260506094003 | 23 | 103 | 0.0 | 4.8 | 0.00 | 0.00 | 0.00 | 89 | 1008.7 |
| 20260506093524 | 23 | 126 | 1.6 | 4.8 | 0.00 | 0.00 | 0.00 | 89 | 1008.6 |
| 20260506093003 | 23 | 229 | 0.0 | 4.8 | 0.00 | 0.00 | 0.00 | 89 | 1008.7 |
| 20260506092503 | 23 | 267 | 0.0 | 3.2 | 0.00 | 0.00 | 0.00 | 89 | 1008.8 |
| 20260506092003 | 23 | 267 | 0.0 | 3.2 | 0.00 | 0.00 | 0.00 | 89 | 1008.9 |
| 20260506091503 | 23 | 267 | 1.6 | 4.8 | 0.00 | 0.00 | 0.00 | 89 | 1008.8 |
| 20260506091003 | 23 | 261 | 1.6 | 6.4 | 0.00 | 0.00 | 0.00 | 89 | 1008.9 |
| 20260506090503 | 23 | 256 | 1.6 | 6.4 | 0.00 | 0.00 | 0.00 | 89 | 1008.9 |
| 20260506090003 | 23 | 250 | 0.0 | 4.8 | 0.00 | 0.00 | 0.00 | 89 | 1008.8 |
| 20260506085503 | 23 | 255 | 0.0 | 4.8 | 0.00 | 0.00 | 0.00 | 89 | 1008.8 |
| 20260506085024 | 22 | 264 | 1.6 | 4.8 | 0.00 | 0.00 | 0.00 | 89 | 1008.8 |
| 20260506084503 | 22 | 270 | 1.6 | 6.4 | 0.00 | 0.00 | 0.00 | 89 | 1008.9 |
| 20260506084003 | 22 | 273 | 0.0 | 6.4 | 0.00 | 0.00 | 0.00 | 89 | 1008.7 |
| 20260506083503 | 23 | 251 | 0.0 | 4.8 | 0.00 | 0.00 | 0.00 | 89 | 1008.6 |
| 20260506083003 | 23 | 215 | 0.0 | 4.8 | 0.00 | 0.00 | 0.00 | 89 | 1008.7 |
| 20260506082503 | 23 | 193 | 0.0 | 3.2 | 0.00 | 0.00 | 0.00 | 89 | 1008.7 |
| 20260506082024 | 23 | 192 | 0.0 | 4.8 | 0.00 | 0.00 | 0.00 | 89 | 1008.7 |
| 20260506081503 | 23 | 215 | 1.6 | 6.4 | 0.00 | 0.00 | 0.00 | 88 | 1008.6 |
| 20260506081003 | 23 | 234 | 1.6 | 6.4 | 0.00 | 0.00 | 0.00 | 88 | 1008.6 |
| 20260506080503 | 23 | 227 | 1.6 | 6.4 | 0.00 | 0.00 | 0.00 | 88 | 1008.7 |
| 20260506073524 | 23 | 218 | 1.6 | 8.0 | 0.00 | 0.00 | 0.00 | 88 | 1008.8 |
| 20260506073003 | 23 | 243 | 3.2 | 8.0 | 0.00 | 0.00 | 0.00 | 87 | 1008.8 |
| 20260506072503 | 23 | 256 | 1.6 | 6.4 | 0.00 | 0.00 | 0.00 | 87 | 1008.9 |
| 20260506072024 | 23 | 242 | 1.6 | 8.0 | 0.00 | 0.00 | 0.00 | 87 | 1008.9 |
| 20260506071503 | 23 | 255 | 3.2 | 8.0 | 0.00 | 0.00 | 0.00 | 87 | 1009.0 |
| 20260506071003 | 23 | 261 | 1.6 | 8.0 | 0.00 | 0.00 | 0.00 | 87 | 1009.0 |
| 20260506070503 | 23 | 261 | 1.6 | 12.9 | 0.00 | 0.00 | 0.00 | 87 | 1008.9 |
| 20260506062503 | 23 | 250 | 4.8 | 12.9 | 0.00 | 0.00 | 0.00 | 86 | 1009.7 |
| 20260506062024 | 23 | 250 | 4.8 | 12.9 | 0.00 | 0.00 | 0.00 | 86 | 1009.6 |
| 20260506061503 | 23 | 253 | 3.2 | 11.3 | 0.00 | 0.00 | 0.00 | 86 | 1009.4 |
| 20260506061003 | 23 | 257 | 3.2 | 9.7 | 0.00 | 0.00 | 0.00 | 86 | 1009.2 |
| 20260506060503 | 23 | 241 | 3.2 | 12.9 | 0.00 | 0.00 | 0.00 | 86 | 1009.3 |
| 20260506051003 | 23 | 248 | 4.8 | 16.1 | 0.00 | 0.00 | 0.00 | 86 | 1008.6 |
| 20260506050503 | 23 | 227 | 3.2 | 14.5 | 0.00 | 0.00 | 0.00 | 86 | 1008.5 |
| 20260506045003 | 23 | 228 | 4.8 | 17.7 | 0.00 | 0.00 | 0.00 | 86 | 1008.6 |
| 20260506044503 | 23 | 255 | 3.2 | 17.7 | 0.00 | 0.00 | 0.00 | 85 | 1008.6 |
| 20260506044003 | 24 | 235 | 4.8 | 17.7 | 0.00 | 0.00 | 0.00 | 85 | 1008.4 |
| 20260506043503 | 24 | 234 | 4.8 | 16.1 | 0.00 | 0.00 | 0.00 | 85 | 1008.4 |
| 20260506043003 | 24 | 244 | 3.2 | 16.1 | 0.00 | 0.00 | 0.00 | 85 | 1008.5 |
| 20260506042503 | 24 | 246 | 1.6 | 11.3 | 0.00 | 0.00 | 0.00 | 85 | 1008.6 |
| 20260506042003 | 24 | 235 | 1.6 | 12.9 | 0.00 | 0.00 | 0.00 | 85 | 1008.8 |
| 20260506041503 | 24 | 226 | 3.2 | 12.9 | 0.00 | 0.00 | 0.00 | 85 | 1008.8 |
| 20260506041024 | 24 | 238 | 3.2 | 12.9 | 0.00 | 0.00 | 0.00 | 85 | 1008.8 |
| 20260506040503 | 24 | 243 | 3.2 | 11.3 | 0.00 | 0.00 | 0.00 | 85 | 1008.8 |
| 20260506040024 | 24 | 231 | 1.6 | 9.7 | 0.00 | 0.00 | 0.00 | 85 | 1008.7 |
| 20260506035503 | 24 | 277 | 1.6 | 12.9 | 0.00 | 0.00 | 0.00 | 85 | 1008.7 |
| 20260506035003 | 24 | 283 | 1.6 | 12.9 | 0.00 | 0.00 | 0.00 | 85 | 1008.7 |
| 20260506034503 | 24 | 267 | 3.2 | 16.1 | 0.00 | 0.00 | 0.00 | 85 | 1008.7 |
| 20260506034003 | 24 | 253 | 3.2 | 16.1 | 0.00 | 0.00 | 0.00 | 85 | 1008.7 |
| 20260506033503 | 24 | 259 | 3.2 | 14.5 | 0.00 | 0.00 | 0.00 | 85 | 1008.5 |
| 20260506033024 | 24 | 249 | 3.2 | 14.5 | 0.00 | 0.00 | 0.00 | 85 | 1008.5 |
| 20260506032503 | 24 | 262 | 3.2 | 14.5 | 0.00 | 0.00 | 0.00 | 85 | 1008.5 |
| 20260506032003 | 24 | 295 | 3.2 | 14.5 | 0.00 | 0.00 | 0.00 | 85 | 1008.4 |
| 20260506031503 | 25 | 230 | 1.6 | 12.9 | 0.00 | 0.00 | 0.00 | 84 | 1008.3 |
| 20260506031003 | 25 | 237 | 3.2 | 11.3 | 0.00 | 0.00 | 0.00 | 84 | 1008.4 |
| 20260506030503 | 25 | 245 | 3.2 | 11.3 | 0.00 | 0.00 | 0.00 | 84 | 1008.5 |
| 20260506030003 | 25 | 252 | 3.2 | 8.0 | 0.00 | 0.00 | 0.00 | 84 | 1008.6 |
| 20260506025503 | 25 | 244 | 1.6 | 8.0 | 0.00 | 0.00 | 0.00 | 84 | 1008.6 |
| 20260506025003 | 25 | 241 | 3.2 | 11.3 | 0.00 | 0.00 | 0.00 | 84 | 1008.4 |
| 20260506024503 | 25 | 201 | 3.2 | 11.3 | 0.00 | 0.00 | 0.00 | 84 | 1008.3 |
| 20260506024003 | 25 | 212 | 3.2 | 11.3 | 0.00 | 0.00 | 0.00 | 84 | 1008.2 |
| 20260506023503 | 25 | 231 | 1.6 | 11.3 | 0.00 | 0.00 | 0.00 | 84 | 1008.1 |
| 20260506023003 | 25 | 234 | 1.6 | 11.3 | 0.00 | 0.00 | 0.00 | 84 | 1008.1 |
| 20260506022503 | 25 | 269 | 1.6 | 8.0 | 0.00 | 0.00 | 0.00 | 84 | 1007.8 |
| 20260506022003 | 25 | 279 | 1.6 | 8.0 | 0.00 | 0.00 | 0.00 | 84 | 1007.7 |
| 20260506021503 | 25 | 45 | 1.6 | 9.7 | 0.00 | 0.00 | 0.00 | 84 | 1007.6 |
| 20260506021003 | 25 | 108 | 3.2 | 14.5 | 0.00 | 0.00 | 0.00 | 84 | 1007.4 |
| 20260506020503 | 25 | 116 | 4.8 | 17.7 | 0.00 | 0.00 | 0.00 | 84 | 1007.3 |
| 20260506020003 | 25 | 110 | 4.8 | 17.7 | 0.00 | 0.00 | 0.00 | 84 | 1007.2 |
| 20260506015503 | 25 | 112 | 4.8 | 12.9 | 0.00 | 0.00 | 0.00 | 83 | 1007.1 |
| 20260506015003 | 25 | 170 | 3.2 | 11.3 | 0.00 | 0.00 | 0.00 | 83 | 1007.1 |
| 20260506014503 | 25 | 171 | 3.2 | 11.3 | 0.00 | 0.00 | 0.00 | 83 | 1007.1 |
| 20260506014003 | 25 | 116 | 3.2 | 9.7 | 0.00 | 0.00 | 0.00 | 83 | 1007.1 |
| 20260506013503 | 25 | 114 | 3.2 | 6.4 | 0.00 | 0.00 | 0.00 | 83 | 1007.1 |
| 20260506013003 | 25 | 121 | 3.2 | 11.3 | 0.00 | 0.00 | 0.00 | 83 | 1007.0 |
| 20260506012503 | 25 | 151 | 3.2 | 11.3 | 0.00 | 0.00 | 0.00 | 82 | 1006.9 |
| 20260506012003 | 25 | 212 | 3.2 | 11.3 | 0.00 | 0.00 | 0.00 | 82 | 1006.8 |
| 20260506011503 | 25 | 114 | 3.2 | 12.9 | 0.00 | 0.00 | 0.00 | 82 | 1006.7 |
| 20260506011024 | 25 | 110 | 4.8 | 12.9 | 0.00 | 0.00 | 0.00 | 82 | 1006.5 |
| 20260506010524 | 25 | 95 | 3.2 | 11.3 | 0.00 | 0.00 | 0.00 | 82 | 1006.5 |
| 20260506010003 | 25 | 83 | 1.6 | 6.4 | 0.00 | 0.00 | 0.00 | 81 | 1006.4 |
| 20260506005503 | 26 | 117 | 1.6 | 6.4 | 0.00 | 0.00 | 0.00 | 81 | 1006.4 |
| 20260506005003 | 26 | 129 | 0.0 | 6.4 | 0.00 | 0.00 | 0.00 | 81 | 1006.5 |
| 20260506004503 | 26 | 242 | 0.0 | 8.0 | 0.00 | 0.00 | 0.00 | 80 | 1006.3 |
| 20260506004003 | 26 | 200 | 1.6 | 9.7 | 0.00 | 0.00 | 0.00 | 80 | 1006.3 |
| 20260506003503 | 26 | 252 | 1.6 | 12.9 | 0.00 | 0.00 | 0.00 | 80 | 1006.3 |
| 20260506003003 | 26 | 291 | 1.6 | 12.9 | 0.00 | 0.00 | 0.00 | 79 | 1006.3 |
| 20260506002503 | 26 | 192 | 3.2 | 12.9 | 0.00 | 0.00 | 0.00 | 79 | 1006.2 |
| 20260506002003 | 26 | 118 | 4.8 | 12.9 | 0.00 | 0.00 | 0.00 | 79 | 1006.1 |
| 20260506001503 | 26 | 122 | 4.8 | 11.3 | 0.00 | 0.00 | 0.00 | 78 | 1006.0 |
| 20260506001024 | 26 | 131 | 3.2 | 8.0 | 0.00 | 0.00 | 0.00 | 78 | 1006.0 |
| 20260506000503 | 27 | 118 | 1.6 | 11.3 | 0.00 | 0.00 | 0.00 | 77 | 1006.0 |
| 20260506000003 | 27 | 130 | 3.2 | 11.3 | 0.00 | 0.00 | 0.00 | 77 | 1006.0 |
| 20260505235503 | 27 | 174 | 3.2 | 9.7 | 0.00 | 0.00 | 0.00 | 77 | 1006.1 |
| 20260505235003 | 27 | 218 | 3.2 | 17.7 | 0.00 | 0.00 | 0.00 | 76 | 1006.1 |
| 20260505234503 | 27 | 200 | 3.2 | 17.7 | 0.00 | 0.00 | 0.00 | 76 | 1006.1 |
| 20260505234003 | 27 | 136 | 3.2 | 12.9 | 0.00 | 0.00 | 0.00 | 76 | 1006.1 |
| 20260505233503 | 27 | 121 | 3.2 | 12.9 | 0.00 | 0.00 | 0.00 | 75 | 1006.0 |
| 20260505233024 | 27 | 114 | 3.2 | 12.9 | 0.00 | 0.00 | 0.00 | 75 | 1006.1 |
| 20260505232524 | 27 | 136 | 1.6 | 12.9 | 0.00 | 0.00 | 0.00 | 75 | 1006.1 |
| 20260505232003 | 27 | 214 | 1.6 | 12.9 | 0.00 | 0.00 | 0.00 | 75 | 1006.1 |
| 20260505231503 | 27 | 262 | 3.2 | 12.9 | 0.00 | 0.00 | 0.00 | 74 | 1006.1 |
| 20260505231004 | 27 | 220 | 4.8 | 12.9 | 0.00 | 0.00 | 0.00 | 74 | 1006.1 |
| 20260505230503 | 27 | 130 | 3.2 | 16.1 | 0.00 | 0.00 | 0.00 | 74 | 1006.1 |
| 20260505230003 | 27 | 195 | 3.2 | 16.1 | 0.00 | 0.00 | 0.00 | 73 | 1006.2 |
| 20260505225504 | 28 | 186 | 3.2 | 14.5 | 0.00 | 0.00 | 0.00 | 72 | 1006.1 |
| 20260505225003 | 28 | 98 | 3.2 | 17.7 | 0.00 | 0.00 | 0.00 | 74 | 1006.2 |
| 20260505224503 | 27 | 124 | 3.2 | 17.7 | 0.00 | 0.00 | 0.00 | 74 | 1006.2 |
| 20260505224003 | 27 | 168 | 3.2 | 9.7 | 0.00 | 0.00 | 0.00 | 75 | 1006.2 |
| 20260505223503 | 27 | 247 | 4.8 | 17.7 | 0.00 | 0.00 | 0.00 | 75 | 1006.2 |
| 20260505223003 | 27 | 257 | 4.8 | 17.7 | 0.00 | 0.00 | 0.00 | 74 | 1006.2 |
| 20260505222504 | 27 | 250 | 4.8 | 14.5 | 0.00 | 0.00 | 0.00 | 74 | 1006.2 |
| 20260505222003 | 27 | 246 | 4.8 | 14.5 | 0.00 | 0.00 | 0.00 | 73 | 1006.3 |
| 20260505221503 | 27 | 242 | 4.8 | 16.1 | 0.00 | 0.00 | 0.00 | 73 | 1006.2 |
| 20260505221025 | 28 | 249 | 8.0 | 20.9 | 0.00 | 0.00 | 0.00 | 73 | 1006.2 |
| 20260505220524 | 28 | 246 | 8.0 | 20.9 | 0.00 | 0.00 | 0.00 | 71 | 1006.1 |
| 20260505220003 | 28 | 246 | 6.4 | 30.6 | 0.00 | 0.00 | 0.00 | 71 | 1006.2 |
| 20260505215524 | 28 | 251 | 8.0 | 30.6 | 0.00 | 0.00 | 0.00 | 71 | 1006.3 |
| 20260505215003 | 28 | 250 | 8.0 | 19.3 | 0.00 | 0.00 | 0.00 | 71 | 1006.3 |
| 20260505214524 | 28 | 255 | 8.0 | 19.3 | 0.00 | 0.00 | 0.00 | 71 | 1006.2 |
| 20260505214003 | 28 | 255 | 6.4 | 24.1 | 0.00 | 0.00 | 0.00 | 71 | 1006.2 |
| 20260505213503 | 28 | 239 | 8.0 | 24.1 | 0.00 | 0.00 | 0.00 | 70 | 1006.2 |
| 20260505213003 | 28 | 249 | 8.0 | 22.5 | 0.00 | 0.00 | 0.00 | 69 | 1006.3 |
| 20260505212503 | 28 | 256 | 8.0 | 22.5 | 0.00 | 0.00 | 0.00 | 70 | 1006.2 |
| 20260505212024 | 28 | 238 | 8.0 | 17.7 | 0.00 | 0.00 | 0.00 | 70 | 1006.1 |
| 20260505211524 | 28 | 233 | 8.0 | 17.7 | 0.00 | 0.00 | 0.00 | 72 | 1006.2 |
| 20260505211003 | 28 | 253 | 9.7 | 20.9 | 0.00 | 0.00 | 0.00 | 69 | 1006.4 |
| 20260505210503 | 29 | 251 | 11.3 | 24.1 | 0.00 | 0.00 | 0.00 | 69 | 1006.4 |
| 20260505210003 | 28 | 248 | 11.3 | 25.7 | 0.00 | 0.00 | 0.00 | 71 | 1006.4 |
| 20260505205524 | 28 | 250 | 9.7 | 25.7 | 0.00 | 0.00 | 0.00 | 70 | 1006.6 |
| 20260505205003 | 28 | 253 | 9.7 | 20.9 | 0.00 | 0.00 | 0.00 | 73 | 1006.7 |
| 20260505204503 | 28 | 246 | 9.7 | 25.7 | 0.00 | 0.00 | 0.00 | 71 | 1006.7 |
| 20260505204003 | 28 | 243 | 9.7 | 25.7 | 0.00 | 0.00 | 0.00 | 70 | 1006.8 |
| 20260505203503 | 28 | 247 | 11.3 | 24.1 | 0.00 | 0.00 | 0.00 | 70 | 1006.8 |
| 20260505203003 | 28 | 251 | 14.5 | 29.0 | 0.00 | 0.00 | 0.00 | 70 | 1006.9 |
| 20260505202503 | 28 | 252 | 11.3 | 29.0 | 0.00 | 0.00 | 0.00 | 70 | 1007.1 |
| 20260505202003 | 28 | 245 | 8.0 | 24.1 | 0.00 | 0.00 | 0.00 | 70 | 1006.9 |
| 20260505201503 | 28 | 251 | 9.7 | 25.7 | 0.00 | 0.00 | 0.00 | 71 | 1007.1 |
| 20260505201003 | 27 | 256 | 12.9 | 25.7 | 0.00 | 0.00 | 0.00 | 72 | 1007.2 |
| 20260505200524 | 28 | 257 | 9.7 | 25.7 | 0.00 | 0.00 | 0.00 | 71 | 1007.3 |
| 20260505200024 | 28 | 249 | 9.7 | 19.3 | 0.00 | 0.00 | 0.00 | 73 | 1007.3 |
| 20260505195503 | 27 | 248 | 9.7 | 19.3 | 0.00 | 0.00 | 0.00 | 73 | 1007.2 |
| 20260505195003 | 27 | 252 | 8.0 | 17.7 | 0.00 | 0.00 | 0.00 | 73 | 1007.3 |
| 20260505194503 | 27 | 254 | 8.0 | 17.7 | 0.00 | 0.00 | 0.00 | 74 | 1007.4 |
| 20260505194003 | 27 | 250 | 6.4 | 16.1 | 0.00 | 0.00 | 0.00 | 74 | 1007.5 |
| 20260505193524 | 27 | 250 | 6.4 | 24.1 | 0.00 | 0.00 | 0.00 | 75 | 1007.7 |
| 20260505193024 | 27 | 249 | 8.0 | 24.1 | 0.00 | 0.00 | 0.00 | 74 | 1007.7 |
| 20260505192503 | 27 | 248 | 8.0 | 22.5 | 0.00 | 0.00 | 0.00 | 74 | 1007.6 |
| 20260505192003 | 27 | 249 | 6.4 | 17.7 | 0.00 | 0.00 | 0.00 | 74 | 1007.6 |
| 20260505191503 | 27 | 239 | 8.0 | 16.1 | 0.00 | 0.00 | 0.00 | 75 | 1007.7 |
| 20260505191003 | 27 | 247 | 11.3 | 25.7 | 0.00 | 0.00 | 0.00 | 75 | 1007.8 |
| 20260505190503 | 27 | 252 | 12.9 | 25.7 | 0.00 | 0.00 | 0.00 | 73 | 1007.7 |
| 20260505190024 | 27 | 250 | 12.9 | 33.8 | 0.00 | 0.00 | 0.00 | 74 | 1007.6 |
| 20260505185503 | 27 | 249 | 14.5 | 33.8 | 0.00 | 0.00 | 0.00 | 73 | 1007.8 |
| 20260505185003 | 27 | 248 | 11.3 | 27.4 | 0.00 | 0.00 | 0.00 | 73 | 1007.7 |
| 20260505184503 | 27 | 254 | 12.9 | 30.6 | 0.00 | 0.00 | 0.00 | 74 | 1007.7 |
| 20260505184003 | 27 | 255 | 12.9 | 30.6 | 0.00 | 0.00 | 0.00 | 74 | 1007.8 |
| 20260505183524 | 27 | 252 | 11.3 | 24.1 | 0.00 | 0.00 | 0.00 | 75 | 1008.0 |
| 20260505183024 | 27 | 250 | 11.3 | 24.1 | 0.00 | 0.00 | 0.00 | 75 | 1008.1 |
| 20260505182503 | 26 | 245 | 11.3 | 24.1 | 0.00 | 0.00 | 0.00 | 77 | 1008.0 |
| 20260505182003 | 26 | 248 | 9.7 | 22.5 | 0.00 | 0.00 | 0.00 | 77 | 1008.2 |
| 20260505181503 | 26 | 254 | 9.7 | 20.9 | 0.00 | 0.00 | 0.00 | 77 | 1008.2 |
| 20260505181003 | 26 | 249 | 9.7 | 20.9 | 0.00 | 0.00 | 0.00 | 77 | 1008.2 |
| 20260505180503 | 26 | 249 | 9.7 | 22.5 | 0.00 | 0.00 | 0.00 | 77 | 1008.2 |
| 20260505180024 | 26 | 254 | 9.7 | 22.5 | 0.00 | 0.00 | 0.00 | 77 | 1008.3 |
| 20260505175503 | 26 | 251 | 11.3 | 20.9 | 0.00 | 0.00 | 0.00 | 78 | 1008.4 |
| 20260505175003 | 26 | 250 | 11.3 | 20.9 | 0.00 | 0.00 | 0.00 | 78 | 1008.5 |
| 20260505174503 | 26 | 252 | 9.7 | 20.9 | 0.00 | 0.00 | 0.00 | 78 | 1008.5 |
| 20260505174024 | 25 | 249 | 9.7 | 20.9 | 0.00 | 0.00 | 0.00 | 79 | 1008.5 |
| 20260505173503 | 25 | 245 | 8.0 | 22.5 | 0.00 | 0.00 | 0.00 | 80 | 1008.5 |
| 20260505173003 | 25 | 251 | 9.7 | 25.7 | 0.00 | 0.00 | 0.00 | 79 | 1008.6 |
| 20260505172503 | 25 | 242 | 8.0 | 25.7 | 0.00 | 0.00 | 0.00 | 80 | 1008.5 |
| 20260505172003 | 25 | 228 | 8.0 | 25.7 | 0.00 | 0.00 | 0.00 | 80 | 1008.5 |
| 20260505171503 | 25 | 250 | 9.7 | 24.1 | 0.00 | 0.00 | 0.00 | 81 | 1008.5 |
| 20260505171003 | 24 | 255 | 11.3 | 24.1 | 0.00 | 0.00 | 0.00 | 82 | 1008.7 |
| 20260505170503 | 24 | 251 | 9.7 | 24.1 | 0.00 | 0.00 | 0.00 | 82 | 1008.7 |
| 20260505170024 | 24 | 250 | 9.7 | 19.3 | 0.00 | 0.00 | 0.00 | 81 | 1008.8 |
| 20260505165524 | 24 | 253 | 8.0 | 19.3 | 0.00 | 0.00 | 0.00 | 81 | 1009.0 |
| 20260505165003 | 24 | 247 | 8.0 | 19.3 | 0.00 | 0.00 | 0.00 | 82 | 1008.8 |
| 20260505164503 | 24 | 245 | 6.4 | 17.7 | 0.00 | 0.00 | 0.00 | 82 | 1008.8 |
| 20260505164024 | 24 | 244 | 6.4 | 17.7 | 0.00 | 0.00 | 0.00 | 82 | 1008.7 |
| 20260505163524 | 24 | 241 | 4.8 | 16.1 | 0.00 | 0.00 | 0.00 | 83 | 1008.8 |
| 20260505163003 | 23 | 246 | 6.4 | 20.9 | 0.00 | 0.00 | 0.00 | 83 | 1008.8 |
| 20260505162524 | 23 | 255 | 6.4 | 20.9 | 0.00 | 0.00 | 0.00 | 83 | 1008.9 |
| 20260505162024 | 23 | 261 | 3.2 | 12.9 | 0.00 | 0.00 | 0.00 | 83 | 1008.9 |
| 20260505161503 | 23 | 255 | 4.8 | 14.5 | 0.00 | 0.00 | 0.00 | 84 | 1009.1 |
| 20260505161003 | 23 | 256 | 6.4 | 14.5 | 0.00 | 0.00 | 0.00 | 83 | 1009.1 |
| 20260505160524 | 23 | 257 | 4.8 | 14.5 | 0.00 | 0.00 | 0.00 | 84 | 1008.9 |
| 20260505153003 | 22 | 252 | 4.8 | 14.5 | 0.00 | 0.00 | 0.00 | 85 | 1008.9 |
| 20260505152503 | 22 | 262 | 1.6 | 9.7 | 0.00 | 0.00 | 0.00 | 85 | 1008.8 |
| 20260505152003 | 22 | 267 | 1.6 | 14.5 | 0.00 | 0.00 | 0.00 | 86 | 1008.7 |
| 20260505151503 | 22 | 260 | 3.2 | 14.5 | 0.00 | 0.00 | 0.00 | 86 | 1008.8 |
| 20260505151003 | 22 | 255 | 4.8 | 12.9 | 0.00 | 0.00 | 0.00 | 87 | 1008.8 |
| 20260505150503 | 22 | 254 | 6.4 | 12.9 | 0.00 | 0.00 | 0.00 | 87 | 1008.9 |
| 20260505140503 | 21 | 250 | 6.4 | 16.1 | 0.00 | 0.00 | 0.00 | 87 | 1008.8 |
| 20260505125003 | 20 | 246 | 1.6 | 8.0 | 0.00 | 0.00 | 0.00 | 87 | 1008.6 |
| 20260505124524 | 20 | 241 | 1.6 | 17.7 | 0.00 | 0.00 | 0.00 | 88 | 1008.5 |
| 20260505124003 | 20 | 232 | 3.2 | 17.7 | 0.00 | 0.00 | 0.00 | 88 | 1008.5 |
| 20260505123503 | 20 | 238 | 3.2 | 14.5 | 0.00 | 0.00 | 0.00 | 88 | 1008.4 |
| 20260505123003 | 20 | 243 | 1.6 | 14.5 | 0.00 | 0.00 | 0.00 | 87 | 1008.2 |
| 20260505122503 | 20 | 229 | 1.6 | 11.3 | 0.00 | 0.00 | 0.00 | 87 | 1008.2 |
| 20260505122003 | 20 | 249 | 3.2 | 14.5 | 0.00 | 0.00 | 0.00 | 87 | 1008.1 |
| 20260505121503 | 20 | 248 | 3.2 | 14.5 | 0.00 | 0.00 | 0.00 | 87 | 1008.0 |
| 20260505121003 | 20 | 245 | 4.8 | 16.1 | 0.00 | 0.00 | 0.00 | 87 | 1008.2 |
| 20260505120503 | 20 | 255 | 4.8 | 16.1 | 0.00 | 0.00 | 0.00 | 87 | 1008.2 |
| 20260505120004 | 20 | 264 | 4.8 | 12.9 | 0.00 | 0.00 | 0.00 | 87 | 1008.2 |
| 20260505115503 | 20 | 252 | 4.8 | 12.9 | 0.00 | 0.00 | 0.00 | 87 | 1008.1 |
| 20260505115003 | 20 | 245 | 4.8 | 12.9 | 0.00 | 0.00 | 0.00 | 87 | 1008.1 |
| 20260505114503 | 20 | 247 | 4.8 | 14.5 | 0.00 | 0.00 | 0.00 | 87 | 1008.0 |
| 20260505114003 | 20 | 248 | 3.2 | 14.5 | 0.00 | 0.00 | 0.00 | 87 | 1008.1 |
| 20260505113503 | 20 | 249 | 3.2 | 12.9 | 0.00 | 0.00 | 0.00 | 87 | 1008.0 |
| 20260505113003 | 20 | 250 | 3.2 | 12.9 | 0.00 | 0.00 | 0.00 | 87 | 1007.9 |
| 20260505112503 | 20 | 253 | 3.2 | 14.5 | 0.00 | 0.00 | 0.00 | 87 | 1008.0 |
| 20260505112003 | 20 | 251 | 3.2 | 14.5 | 0.00 | 0.00 | 0.00 | 87 | 1007.9 |
| 20260505111503 | 20 | 249 | 3.2 | 12.9 | 0.00 | 0.00 | 0.00 | 87 | 1008.0 |
| 20260505111003 | 20 | 254 | 3.2 | 14.5 | 0.00 | 0.00 | 0.00 | 87 | 1008.0 |